Location: NJAA Observatory
(40.6819°N, 74.8979°W)
Time: 14:02:05
(UTC-04:00)

S-56A Canister/Altair - Visible Passes

Search period start: 21 August 2014 00:00
Search period end: 31 August 2014 00:00
Orbit: 632 x 2504 km, 38.9° (Epoch: 17 August)

Date Brightness Start Highest point End Pass type
(mag) Time Alt. Az. Time Alt. Az. Time Alt. Az.
21 Aug 10.0 21:06:24 10° WNW 21:21:18 64° SSW 21:30:09 23° SE visible
21 Aug 10.4 23:14:36 10° W 23:25:48 29° SW 23:27:35 28° SSW visible
22 Aug 10.1 20:33:16 10° W 20:48:19 68° SSW 20:59:27 16° SE visible
22 Aug 10.3 22:41:03 10° W 22:53:15 34° SW 22:56:53 29° SSW visible
23 Aug 10.2 20:00:12 10° W 20:15:15 71° SSW 20:28:32 10° ESE visible
23 Aug 10.3 22:07:36 10° WNW 22:20:37 38° SW 22:26:15 27° S visible
24 Aug 10.4 21:34:16 10° WNW 21:47:53 43° SW 21:55:39 23° SSE visible
24 Aug 11.1 23:46:14 10° W 23:51:14 13° WSW 23:53:07 12° SW visible
25 Aug 10.5 21:01:02 10° WNW 21:15:04 47° SW 21:25:07 17° SSE visible
25 Aug 11.0 23:11:22 10° W 23:18:49 16° SW 23:22:35 14° SW visible
26 Aug 10.5 20:27:54 10° WNW 20:42:09 51° SSW 20:54:39 11° SE visible
26 Aug 11.0 22:37:09 10° W 22:46:20 20° SW 22:52:07 15° SSW visible
27 Aug 10.5 19:54:52 10° WNW 20:09:11 56° SSW 20:22:33 10° SE visible
27 Aug 11.0 22:03:18 10° W 22:13:46 24° SW 22:21:44 13° S visible
28 Aug 11.1 21:29:41 10° W 21:41:07 27° SW 21:51:25 10° S visible
29 Aug 11.1 20:56:17 10° W 21:08:24 31° SW 21:19:38 10° S visible
30 Aug 11.0 20:23:02 10° W 20:35:36 35° SW 20:47:37 10° SSE visible
